Flag for U.S.A. Weather past 2 weeks in Sitka, Alaska, U.S.A.

Now
41 °F

Overcast.


Feels Like: 37 °F
Forecast: 39 / 50 °F
Wind: 6 mph from North

Location: Sitka Airport

Current Time: Mar 1, 2015 at 7:58:13 AM

Latest Report: Mar 1, 2015 at 6:53 AM


Visibility: 10 mi

Pressure: 30.25 "Hg

Humidity: 89%

Dew point: 38 °F

Location of SitkaLocation

Historic Weather in Sitka — Graph

°F

Sitka temperature yesterday

Maximum temperature yesterday: 43 °F (at 1:53 PM)
Minimum temperature yesterday: 33 °F (at 3:53 AM)
Average temperature yesterday: 39 °F

Past Weeks' High & Low Weather Summary

 TemperatureHumidityPressure
High56 °F (Feb 16, 2:53 PM)100% (Feb 15, 2:53 AM)30.46 "Hg (Feb 15, 2:53 AM)
Low31 °F (Feb 27, 3:53 AM)34% (Feb 16, 11:53 AM)29.72 "Hg (Feb 18, 7:53 AM)
Average42 °F83%30.25 "Hg
* Reported Feb 14 5:53 AM — Mar 1 5:53 AM, Sitka, Weather by CustomWeather, © 2015

Note: Actual official high and low records may vary slightly from our data, if they occured in-between our weather recording intervals... More about our weather records

Advertising

Sitka weather history for previous 24 hours

 ConditionsComfort  
Time TempWeatherWind HumidityBarometerVisibility
5:53 AM
Sun, Mar 1
41 °FMostly cloudy.7 mph93%30.23 "Hg10 mi
4:53 AM40 °FMostly cloudy.5 mph93%30.21 "Hg10 mi
3:53 AM40 °FFog.No wind93%30.22 "Hg5 mi
2:53 AM40 °FOvercast.7 mph93%30.23 "Hg10 mi
1:53 AM40 °FLight rain. Overcast.5 mph93%30.25 "Hg10 mi
12:53 AM40 °FLight rain. Fog.6 mph93%30.27 "Hg5 mi
11:53 PM
Sat, Feb 28
40 °FLight rain. Fog.6 mph93%30.29 "Hg5 mi
10:53 PM40 °FLight rain. Fog.3 mph97%30.29 "Hg3 mi
10:00 PM41 °FMostly cloudy.No wind89%30.30 "Hg10 mi
8:53 PM42 °FOvercast.5 mph85%30.31 "Hg10 mi
7:53 PM41 °FMostly cloudy.5 mph82%30.31 "Hg10 mi
6:53 PM42 °FOvercast.No wind76%30.31 "Hg10 mi
5:53 PM43 °FOvercast.5 mph76%30.33 "Hg10 mi
4:53 PM43 °FOvercast.5 mph76%30.33 "Hg10 mi
3:53 PM43 °FOvercast.5 mph79%30.33 "Hg10 mi
2:53 PM43 °FOvercast.6 mph79%30.34 "Hg10 mi
1:53 PM43 °FOvercast.6 mph76%30.35 "Hg10 mi
12:53 PM42 °FMore clouds than sun.7 mph79%30.36 "Hg10 mi
11:53 AM42 °FPartly sunny.5 mph76%30.36 "Hg10 mi
10:53 AM41 °FPartly sunny.No wind76%30.37 "Hg10 mi
9:53 AM39 °FOvercast.3 mph76%30.36 "Hg10 mi
8:53 AM36 °FOvercast.3 mph79%30.35 "Hg10 mi
7:53 AM34 °FPartly sunny.5 mph85%30.36 "Hg10 mi
Weather by CustomWeather, © 2015

See weather overviewHow to use our weather pages